Regional Weather Roundup
Issued by NWS

Home | Current Version | Previous Version | Text Only | Print | Product List | Glossary Off
Versions: 1 2 3 4 5 6 7 8 9 10 11 12 13 14 15 16 17 18 19 20 21 22 23 24 25 26 27 28 29 30 31 32 33 34 35 36 37 38 39 40 41 42 43 44 45 46 47 48 49 50

000
ASUS43 KBIS 230302
RWRND

NORTH DAKOTA REGIONAL WEATHER ROUNDUP
NATIONAL WEATHER SERVICE BISMARCK ND
1000 PM CDT THU JUN 22 2017

NOTE: "FAIR" INDICATES FEW OR NO CLOUDS BELOW 12,000 FEET WITH NO
SIGNIFICANT WEATHER AND/OR OBSTRUCTIONS TO VISIBILITY.


NDZ001>003-009>011-017-230400-
NORTHWEST NORTH DAKOTA

CITY           SKY/WX    TMP DP  RH WIND       PRES   REMARKS
WILLISTON      LGT RAIN  56  52  86 NW24G40   29.97R
MINOT          CLOUDY    60  50  69 W22       29.81R
MINOT AFB      MOCLDY    59  51  76 W23G30    29.79R
$$

NDZ018>021-031>035-040>046-230400-
SOUTHWEST NORTH DAKOTA

CITY           SKY/WX    TMP DP  RH WIND       PRES   REMARKS
BISMARCK       MOCLDY    65  41  41 NW21G29   29.87R
DICKINSON      CLEAR     55  42  61 NW20G29   29.95R
GARRISON         N/A     58  47  66 NW24G31   29.85R
HETTINGER ARPT CLEAR     59  33  37 NW20G28   29.99R
$$

NDZ004>008-012>016-024-026-027-054-230400-
NORTHEAST NORTH DAKOTA

CITY           SKY/WX    TMP DP  RH WIND       PRES   REMARKS
GRAND FORKS    PTCLDY    64  45  49 W10       29.68S
GRND FRKS AFB  PTCLDY    62  44  51 NW7       29.70R
DEVILS LAKE    CLOUDY    60  46  59 W21G28    29.74R
$$

NDZ022-023-025-028>030-036>039-047>053-230400-
SOUTHEAST NORTH DAKOTA

CITY           SKY/WX    TMP DP  RH WIND       PRES   REMARKS
FARGO          CLEAR     65  39  38 W9        29.72R
JAMESTOWN      CLEAR     65  38  36 NW16      29.77R
$$





USA.gov is the U.S. government's official web portal to all federal, state and local government web resources and services.